Regional Weather Roundup
Issued by NWS Upton, NY

Current Version | Previous Version | Text Only | Print | Product List | Glossary Off
Versions: 1 2 3 4 5 6 7 8 9 10 11 12 13 14 15 16 17 18 19 20 21 22 23 24 25 26 27 28 29 30 31 32 33 34 35 36 37 38 39 40 41 42 43 44 45 46 47 48 49 50
000 ASUS41 KOKX 260508 RWROKX REGIONAL WEATHER ROUNDUP NATIONAL WEATHER SERVICE NEW YORK NY 100 AM EDT TUE MAY 26 2015 NOTE: "FAIR" INDICATES FEW OR NO CLOUDS BELOW 12,000 FEET WITH NO SIGNIFICANT WEATHER AND/OR OBSTRUCTIONS TO VISIBILITY. NYZ071-072-176-178-NJZ106-104-260600- NEW YORK CITY METRO AREA CITY SKY/WX TMP DP RH WIND PRES REMARKS CENTRAL PARK CLEAR 71 56 58 VRB5 30.21F LAGUARDIA APRT PTCLDY 71 54 54 SW13G23 30.18F KENNEDY INTL PTCLDY 66 52 60 SW13 30.21F NEWARK/LIBERTY MOCLDY 71 56 58 S15G24 30.19F BRNX BOT. GARD N/A 70 55 60 S3 30.18F TETERBORO CLEAR 71 57 61 S9 30.17F $$ NYZ177-179-078>081-260600- LONG ISLAND NEW YORK CITY SKY/WX TMP DP RH WIND PRES REMARKS FARMINGDALE CLEAR 64 54 69 SW14 30.22S ISLIP PTCLDY 63 54 72 SW14G21 30.21F SHIRLEY PTCLDY 63 54 72 SW9G22 30.23F WESTHAMPTON MOCLDY 59 54 83 SW10 30.24S MONTAUK POINT N/A 63 54 72 SW12G22 30.24F $$ NYZ052-065-067-260600- HUDSON VALLEY CITY SKY/WX TMP DP RH WIND PRES REMARKS WHITE PLAINS PTCLDY 66 57 72 S3 30.18F NEWBURGH CLEAR 72 59 64 W8 30.17S MONTGOMERY PTCLDY 70 59 68 SW8 30.14F POUGHKEEPSIE MOCLDY 75 57 53 S7 30.14S ALBANY CLOUDY 76 55 48 S9 30.07R $$ NJZ001-105-106-008-010-013-015-019>022-104-260600- NEW JERSEY CITY SKY/WX TMP DP RH WIND PRES REMARKS NEWARK/LIBERTY MOCLDY 71 56 58 S15G24 30.19F TETERBORO CLEAR 71 57 61 S9 30.17F CALDWELL CLEAR 71 56 58 SW7 30.18F MORRISTOWN PTCLDY 72 57 60 S3 30.18F SOMERVILLE PTCLDY 67 58 72 S3 30.17F SUSSEX PTCLDY 69 57 65 VRB3 30.18F ANDOVER N/A 69 59 70 VRB5 30.18F TRENTON CLEAR 68 54 60 S12 30.20F MILLVILLE CLEAR 66 58 75 VRB3 30.23F ATLANTIC CITY CLEAR 66 57 72 S10 30.24F WRIGHTSTOWN CLEAR 65 53 66 SW9 30.20F TOMS RIVER CLEAR N/A N/A N/A S9G16 30.23F BELMAR CLEAR 66 48 52 SW10 30.22F $$ PAZ047>061-062-071-260600- EASTERN PENNSYLVANIA CITY SKY/WX TMP DP RH WIND PRES REMARKS PHILADELPHIA CLEAR 69 53 56 S7 30.22F ALLENTOWN CLEAR 71 59 65 SW8 30.18F SCRANTON PTCLDY 71 58 63 SW6 30.15F $$ CTZ002-004>006-009-010-012-RIZ004-006-007-MAZ004-011-015-260600- SOUTHERN NEW ENGLAND IN CT CITY SKY/WX TMP DP RH WIND PRES REMARKS BRADLEY INTL MOCLDY 68 56 65 S10 30.14F HARTFORD PTCLDY 68 56 65 S8 30.16S DANBURY PTCLDY 67 55 65 S6 30.19F WTRBRY/OXFORD PTCLDY 64 54 68 SW6 30.20S BRIDGEPORT PTCLDY 64 55 72 SW12 30.19F MERIDEN PTCLDY 66 56 70 S10 30.18F NEW HAVEN FAIR 64 55 72 SW9 30.20F CHESTER FAIR 64 54 68 SW7 30.21F GROTON MOCLDY 62 53 72 SW18G26 30.21S WILLIMANTIC MOCLDY 67 55 65 S7 30.19S IN RI CITY SKY/WX TMP DP RH WIND PRES REMARKS PROVIDENCE CLOUDY 65 53 65 SW14 30.20F BLOCK ISLAND MOCLDY 57 52 82 SW20G25 30.23F WESTERLY MOCLDY 62 53 72 SW12 30.22F IN MA CITY SKY/WX TMP DP RH WIND PRES REMARKS BOSTON CLOUDY 66 56 70 SW16 30.14F WORCESTER CLOUDY 66 55 67 SW17 30.16F WESTFIELD CLOUDY 69 56 62 S10 30.13F PROVINCETOWN CLOUDY 59 52 77 SW17 30.20S NANTUCKET PTCLDY 59 56 89 SW18 30.25F $$ ANZ330-335-338-340-345-350-353-355-260600- COASTAL MARINE OBSERVATIONS STATION/POSITION TIME SKY/WX TEMP WIND PRES VSBY WAVE AIR SEA DIR/SP/G HT/PER (UTC) (F) (DEG/KT/KT) (MB) (MI) (FT/S) NY HARB ENTRANCE 0450 60 56 200/ 17/ 21 1022.3 4/ 5 4S FIRE IS 0433 54 N/A 5/ 6 20S FIRE ISLAND 0450 59 56 210/ 16/ 17 1023.5 4/ 5 GREAT SOUTH BAY 0400 62 64 230/ 19/ 23 N/A 23SW MTP 0450 58 53 210/ 16/ 17 1023.7 4/ 6 HUDSON CANYON NOT AVBL KINGS POINT 0400 69 60 220/ 13/ 18 1022.1 CENTRAL LI SOUND 0400 62 54 210/ 16/ 17 N/A EASTERN LI SOUND 0400 60 220/ 19/ 23 N/A ROBBINS REEF 0400 71 210/ 19/ 24 1021.5 $$ >>>>>>>>>>>>>>>>>>>>>>>>>>>> KEY <<<<<<<<<<<<<<<<<<<<<<<<<<< > < > SKY/WX - SKY CONDITION/PRESENT WEATHER < > TMP - TEMPERATURE IN FAHRENHEIT < > DP - DEWPOINT IN FAHRENHEIT < > RH - RELATIVE HUMIDITY IN PERCENT < > WIND - DIRECTION AND SPEED IN MPH < > PRES - MEAN SEA LEVEL PRESSURE IN INCHES OF HG < > WCI - WIND CHILL INDEX < > VSB - VISIBILITY IN MILES < > HX - HEAT INDEX < > TC - TEMPERATURE IN CELSIUS < > VRB - VARIABLE WIND DIRECTION < > < >>>>>>>>>>>>>>>>>>>>>>>>>>>> KEY <<<<<<<<<<<<<<<<<<<<<<<<<<<

USA.gov is the U.S. government's official web portal to all federal, state and local government web resources and services.